OE5XCL Weather Reports


time (UTC)temp
C
wind
direction
speed
KPH
gust
KPH
rain 1hr
cm
rain 24hr
cm
rain mn
cm
humidity
%
barometer
mb
20260502214549 -17 86 0.0 0.0 0.00 0.00 0.00 1016.8
20260502213051 -17 86 0.0 0.0 0.00 0.00 0.00 1016.9
20260502211550 -17 86 0.0 3.2 0.00 0.00 0.00 1016.8
20260502210058 -17 89 0.0 3.2 0.00 0.00 0.00 1017.0
20260502204548 -17 89 0.0 4.8 0.00 0.00 0.00 1017.0
20260502203051 -17 101 1.6 9.7 0.00 0.00 0.00 1017.0
20260502201547 -17 90 0.0 9.7 0.00 0.00 0.00 1017.1
20260502200046 -17 91 3.2 11.3 0.00 0.00 0.00 1017.1
20260502194546 -17 90 6.4 12.9 0.00 0.00 0.00 1017.1
20260502193043 -17 101 0.0 6.4 0.00 0.00 0.00 1017.1
20260502191540 -17 94 1.6 9.7 0.00 0.00 0.00 1017.1
20260502190035 -17 97 3.2 9.7 0.00 0.00 0.00 1017.0
20260502184542 -17 105 0.0 4.8 0.00 0.00 0.00 1017.1
20260502183026 -17 124 0.0 1.6 0.00 0.00 0.00 1017.0
20260502181521 -17 124 0.0 3.2 0.00 0.00 0.00 1016.9
20260502163050 -17 100 6.4 14.5 0.00 0.00 0.00 1017.2
20260502161546 -17 98 3.2 16.1 0.00 0.00 0.00 1017.4
20260502151528 -17 76 6.4 14.5 0.00 0.00 0.00 1018.2
20260502123039 -17 101 8.0 20.9 0.00 0.00 0.00 1020.2
20260502121535 -17 95 14.5 20.9 0.00 0.00 0.00 1020.4
20260502114530 -17 113 8.0 20.9 0.00 0.00 0.00 1020.7
20260502113022 -17 94 16.1 24.1 0.00 0.00 0.00 1021.0
20260502111522 -17 135 6.4 16.1 0.00 0.00 0.00 1021.1
20260502110113 -17 84 8.0 19.3 0.00 0.00 0.00 1021.3
20260502104508 -17 57 14.5 22.5 0.00 0.00 0.00 1021.5
20260502103004 -17 80 14.5 22.5 0.00 0.00 0.00 1021.7
20260502101621 -17 85 11.3 24.1 0.00 0.00 0.00 1021.9
20260502100113 -17 136 11.3 27.4 0.00 0.00 0.00 1022.1
20260502071506 -17 96 8.0 12.9 0.00 0.00 0.00 1023.8
20260502070002 -17 77 3.2 11.3 0.00 0.00 0.00 1023.8
20260502064600 -17 106 8.0 14.5 0.00 0.00 0.00 1023.8
20260502063057 -17 83 0.0 6.4 0.00 0.00 0.00 1024.0
20260502061548 -17 93 6.4 11.3 0.00 0.00 0.00 1024.0
20260502060043 -17 101 1.6 4.8 0.00 0.00 0.00 1024.1
20260502054541 -17 116 0.0 1.6 0.00 0.00 0.00 1024.2
20260502053041 -17 117 0.0 0.0 0.00 0.00 0.00 1024.3
20260502051530 -17 117 0.0 0.0 0.00 0.00 0.00 1024.3
20260502050026 -17 117 0.0 0.0 0.00 0.00 0.00 1024.3
20260502044522 -17 117 0.0 0.0 0.00 0.00 0.00 1024.2
20260502043021 -17 117 0.0 0.0 0.00 0.00 0.00 1024.3
20260502041513 -17 117 0.0 0.0 0.00 0.00 0.00 1024.2
20260502040012 -17 117 0.0 0.0 0.00 0.00 0.00 1024.2
20260502034504 -17 117 0.0 0.0 0.00 0.00 0.00 1024.1
20260502033059 -17 117 0.0 0.0 0.00 0.00 0.00 1024.1
20260502031557 -17 117 0.0 0.0 0.00 0.00 0.00 1024.1
20260502030050 -17 117 0.0 0.0 0.00 0.00 0.00 1024.2
20260502024547 -17 117 0.0 0.0 0.00 0.00 0.00 1024.2
20260502023044 -17 117 0.0 0.0 0.00 0.00 0.00 1024.2
20260502021540 -17 117 0.0 0.0 0.00 0.00 0.00 1024.3
20260502020034 -17 117 0.0 0.0 0.00 0.00 0.00 1024.3
20260502014533 -17 117 0.0 0.0 0.00 0.00 0.00 1024.3
20260502013026 -17 117 0.0 0.0 0.00 0.00 0.00 1024.5
20260502011541 -17 117 0.0 0.0 0.00 0.00 0.00 1024.5
20260502010019 -17 117 0.0 0.0 0.00 0.00 0.00 1024.7
20260502004513 -17 117 0.0 0.0 0.00 0.00 0.00 1024.7
20260502003008 -17 117 0.0 0.0 0.00 0.00 0.00 1024.7
20260502001508 -17 117 0.0 0.0 0.00 0.00 0.00 1024.8
20260502000115 -17 117 0.0 0.0 0.00 0.00 0.00 1024.8
20260501234555 -17 117 0.0 0.0 0.00 0.00 0.00 1025.0
20260501233051 -17 117 0.0 0.0 0.00 0.00 0.00 1025.1
20260501231552 -17 117 0.0 0.0 0.00 0.00 0.00 1025.2
20260501230045 -17 117 0.0 0.0 0.00 0.00 0.00 1025.2
20260501224537 -17 117 0.0 0.0 0.00 0.00 0.00 1025.2
20260501223032 -17 117 0.0 0.0 0.00 0.00 0.00 1025.2
20260501221527 -17 117 0.0 0.0 0.00 0.00 0.00 1025.2
20260501220036 -17 117 0.0 0.0 0.00 0.00 0.00 1025.2